(173) Ino
ephemeris date magn radius delta ra dec elong phase
Today5 Jul 202514.23.303 AU3.571 AU11h33m+11°42'66.7°16.4°
Opposition14 May 202612.63.149 AU2.183 AU15h44m+01°24'159.4°6.5°
(173) Ino - 2025-07-05
astro.vanbuitenen.nl


 
-1 year
-1 month
-1 day
Now
+1 day
+1 month
+1 year

The interactive orbit chart above shows the body's path through the solar system and its position at the given date. Green and blue lines are shown perpendicular to the ecliptic plane: Green if the path is above the ecliptic plane, blue if it is below. (Left-click and drag to rotate the view; Right-click and drag to move the view; Use scroll wheel to zoom in our out.)

The orbital elements of Ino are:

            e (Eccentricity)                : 0.2096775
            a (Semimajor axis)              : 2.7412958
            i (Inclination)                 : 14.19579
            Ω (Longitude of ascending node) : 148.12726
            ω (Argument of perihelion)      : 228.57032
            M (Mean anomaly)                : 151.93545
            Epoch                           : 2025 May 05

            L (Longitude of perihelion)     : 195.81446
            B (Latitude of perihelion)      : -10.59528
            P (Orbital period in years)     : 4.54            
        

The light curve chart below shows the estimated development of the minor planet's magnitude.


The all-sky chart below shows the path of the minor planet over the same period as the light curve. The current position is marked yellow.





The following chart shows the path of the minor planet in the next few days. The field of view is optimized for (~10x50) binoculars and finderscopes. A more printer-friendly version of the same chart can be found below.




Ephemerides:
Date       Time       RA (2000)    DEC (2000)    delta   radius  elong  phase   PA    magn
2025-07-05 00:00 UT   11 33 43.3   +11 42 31     3.571    3.303   66.7   16.4   110   14.2 
2025-07-05 20:12 UT   11 34 27.9   +11 37 34     3.582    3.303   66.1   16.3   110   14.2 
2025-07-06 00:00 UT   11 34 36.3   +11 36 38     3.584    3.303   66.0   16.3   110   14.2 
2025-07-07 00:00 UT   11 35 29.9   +11 30 42     3.597    3.304   65.3   16.2   110   14.2 
2025-07-08 00:00 UT   11 36 23.9   +11 24 43     3.611    3.304   64.6   16.1   110   14.2 
2025-07-09 00:00 UT   11 37 18.4   +11 18 42     3.624    3.304   63.9   16.0   110   14.2 
2025-07-10 00:00 UT   11 38 13.4   +11 12 38     3.637    3.305   63.2   15.9   109   14.2 
2025-07-11 00:00 UT   11 39 08.8   +11 06 31     3.650    3.305   62.5   15.8   109   14.2 
2025-07-12 00:00 UT   11 40 04.7   +11 00 21     3.662    3.306   61.8   15.7   109   14.2 
2025-07-13 00:00 UT   11 41 01.1   +10 54 09     3.675    3.306   61.1   15.6   109   14.2 
2025-07-14 00:00 UT   11 41 57.8   +10 47 54     3.688    3.306   60.4   15.5   109   14.2 
2025-07-15 00:00 UT   11 42 55.1   +10 41 37     3.700    3.307   59.7   15.4   109   14.2 
2025-07-16 00:00 UT   11 43 52.7   +10 35 18     3.713    3.307   59.0   15.3   109   14.2 
2025-07-17 00:00 UT   11 44 50.8   +10 28 56     3.725    3.307   58.4   15.2   109   14.2 
2025-07-18 00:00 UT   11 45 49.3   +10 22 31     3.737    3.307   57.7   15.0   108   14.2 
2025-07-19 00:00 UT   11 46 48.2   +10 16 05     3.750    3.308   57.0   14.9   108   14.2 
2025-07-20 00:00 UT   11 47 47.5   +10 09 36     3.762    3.308   56.3   14.8   108   14.2 
2025-07-21 00:00 UT   11 48 47.3   +10 03 05     3.774    3.308   55.7   14.7   108   14.2 
2025-07-22 00:00 UT   11 49 47.4   +09 56 32     3.785    3.309   55.0   14.6   108   14.2 
2025-07-23 00:00 UT   11 50 47.9   +09 49 57     3.797    3.309   54.3   14.4   108   14.2 
2025-07-24 00:00 UT   11 51 48.8   +09 43 19     3.809    3.309   53.6   14.3   108   14.2 
2025-07-25 00:00 UT   11 52 50.1   +09 36 40     3.820    3.310   53.0   14.2   108   14.2 
2025-07-26 00:00 UT   11 53 51.7   +09 29 59     3.832    3.310   52.3   14.1   107   14.2 
2025-07-27 00:00 UT   11 54 53.7   +09 23 16     3.843    3.310   51.6   13.9   107   14.2 
2025-07-28 00:00 UT   11 55 56.0   +09 16 31     3.854    3.310   51.0   13.8   107   14.2 
2025-07-29 00:00 UT   11 56 58.7   +09 09 45     3.865    3.311   50.3   13.7   107   14.3 
2025-07-30 00:00 UT   11 58 01.8   +09 02 56     3.876    3.311   49.7   13.5   107   14.3 
2025-07-31 00:00 UT   11 59 05.2   +08 56 06     3.887    3.311   49.0   13.4   107   14.3 
2025-08-01 00:00 UT   12 00 08.9   +08 49 15     3.898    3.311   48.3   13.2   106   14.3 
2025-08-02 00:00 UT   12 01 12.9   +08 42 22     3.908    3.312   47.7   13.1   106   14.3 
2025-08-03 00:00 UT   12 02 17.3   +08 35 28     3.919    3.312   47.0   13.0   106   14.3 
2025-08-04 00:00 UT   12 03 21.9   +08 28 32     3.929    3.312   46.4   12.8   106   14.3 


    Terminology:
            
    delta:  distance between minor planet and earth in AU
    radius: distance between minor planet and sun in AU
    magn:   magnitude (brightness) estimate    
    ra:     right ascension in hours (24h = 360deg)
    dec:    declination in degrees
    elong:  elongation in degrees (angle sun-earth-minor planet)    
    phase:  phase angle in degrees (angle sun-minor planet-earth)        
    AU:     Astronomical Unit (mean distance between earth and sun: 149597870.7 km
    

Orbital elements provided by the MPC (Minor Planet Center).
Calculations by a modified version of AAPlus, a C# implementation of the AA+ project by PJ Naughter from the algorithms presented in the book "Astronomical Algorithms" by Jean Meeus.
NGC2000 dso catalog and star labels from VizieR as provided by the Strasbourg astronomical Data Center.
Tycho2 catalog from the ESO archive.